Location: *
(50.6089°N, 2.2719°E)
Time: 11:47:58
(UTC+00:00)

Abrixas rocket - Pass Details

Date: 18 October 2019
Orbit: 359 x 367 km, 48.4° (Epoch: 21 November)

Event Time Altitude Azimuth Distance (km) Brightness Sun altitude
Rises 17:54:32 0° 210° (SSW) 2,215 6.4 -10.4°
Reaches altitude 10° 17:57:09 10° 186° (S) 1,368 4.9 -10.8°
Maximum altitude 17:59:01 15° 148° (SSE) 1,112 4.1 -11.1°
Enters shadow 17:59:58 13° 126° (SE) 1,187 4.1 -11.3°
